DW2468 Weather Reports


time (UTC)temp
C
wind
direction
speed
KPH
gust
KPH
rain 1hr
cm
rain 24hr
cm
rain mn
cm
humidity
%
barometer
mb
20260505124539 12 193 6.4 16.1 0.00 0.00 0.00 90 1010.6
20260505123048 12 209 8.0 16.1 0.00 0.00 0.00 89 1010.6
20260505121536 12 219 8.0 14.5 0.00 0.00 0.00 89 1010.2
20260505120049 12 207 8.0 16.1 0.00 0.00 0.00 88 1010.1
20260505114533 12 201 8.0 19.3 0.00 0.00 0.00 88 1010.0
20260505113032 12 190 9.7 20.9 0.00 0.00 0.00 87 1009.8
20260505111534 12 232 8.0 17.7 0.00 0.00 0.00 87 1009.7
20260505101521 12 232 6.4 9.7 0.00 0.00 0.00 86 1009.1
20260505100021 12 223 3.2 8.0 0.00 0.00 0.00 85 1009.0
20260505094520 11 193 1.6 8.0 0.00 0.00 0.00 84 1009.1
20260505093017 11 182 0.0 0.0 0.00 0.00 0.00 83 1009.0
20260505091515 12 182 0.0 6.4 0.00 0.00 0.00 84 1008.9
20260505090014 12 226 0.0 6.4 0.00 0.00 0.00 85 1008.7
20260505084512 12 226 0.0 3.2 0.00 0.00 0.00 86 1008.6
20260505083008 12 226 3.2 4.8 0.00 0.00 0.00 84 1008.2
20260505081506 12 226 3.2 8.0 0.00 0.00 0.00 84 1008.1
20260505080004 12 226 1.6 4.8 0.00 0.00 0.00 84 1008.1
20260505074502 13 226 3.2 6.4 0.00 0.00 0.00 82 1007.8
20260505073102 13 200 1.6 3.2 0.00 0.00 0.00 82 1007.6
20260505071556 13 200 1.6 6.4 0.00 0.00 0.00 82 1007.5
20260505070100 13 212 1.6 9.7 0.00 0.00 0.00 81 1007.3
20260505064629 13 228 1.6 6.4 0.00 0.00 0.00 81 1007.1
20260505063052 14 228 1.6 9.7 0.00 0.00 0.00 81 1007.0
20260505061552 14 197 8.0 11.3 0.00 0.00 0.00 82 1006.9
20260505060050 14 214 1.6 4.8 0.00 0.00 0.00 82 1007.0
20260505054552 15 214 1.6 3.2 0.00 0.00 0.00 82 1006.8
20260505053048 15 214 1.6 3.2 0.00 0.00 0.00 82 1006.9
20260505051548 15 214 1.6 6.4 0.00 0.00 0.00 81 1006.4
20260505041546 16 214 1.6 4.8 0.00 0.00 0.00 74 1006.0
20260505040053 16 214 1.6 3.2 0.00 0.00 0.00 71 1005.9
20260505034605 17 214 0.0 0.0 0.00 0.00 0.00 68 1005.8
20260505033045 18 214 0.0 0.0 0.00 0.00 0.00 64 1005.6
20260505031545 19 214 0.0 0.0 0.00 0.00 0.00 63 1005.5
20260505030048 20 214 1.6 6.4 0.00 0.00 0.00 60 1005.4
20260505024544 20 214 4.8 8.0 0.00 0.00 0.00 60 1005.4
20260505023044 20 236 3.2 9.7 0.00 0.00 0.00 59 1005.5
20260505021540 21 215 6.4 9.7 0.00 0.00 0.00 58 1005.6
20260505020053 22 212 4.8 12.9 0.00 0.00 0.00 58 1005.7
20260505014541 22 189 3.2 9.7 0.00 0.00 0.00 56 1005.7
20260505013041 23 200 8.0 17.7 0.00 0.00 0.00 54 1005.8
20260505011537 24 223 8.0 14.5 0.00 0.00 0.00 54 1005.7
20260505010040 25 188 6.4 11.3 0.00 0.00 0.00 54 1005.8
20260505004556 26 211 4.8 11.3 0.00 0.00 0.00 54 1005.7
20260505003035 25 174 8.0 14.5 0.00 0.00 0.00 51 1005.7
20260505001537 25 209 8.0 16.1 0.00 0.00 0.00 48 1005.9
20260505000036 25 223 11.3 14.5 0.00 0.00 0.00 49 1005.9
20260504234531 26 205 6.4 14.5 0.00 0.00 0.00 52 1006.2
20260504233030 25 223 6.4 16.1 0.00 0.00 0.00 48 1006.2
20260504231529 25 162 6.4 16.1 0.00 0.00 0.00 50 1006.3
20260504230028 25 196 6.4 17.7 0.00 0.00 0.00 51 1006.4
20260504224533 25 235 9.7 16.1 0.00 0.00 0.00 51 1006.5
20260504223026 25 230 12.9 17.7 0.00 0.00 0.00 53 1006.6
20260504221535 25 229 9.7 16.1 0.00 0.00 0.00 53 1006.7
20260504220023 25 222 8.0 16.1 0.00 0.00 0.00 53 1006.8
20260504214521 25 212 8.0 17.7 0.00 0.00 0.00 57 1006.8
20260504213035 25 218 9.7 16.1 0.00 0.00 0.00 57 1006.8
20260504211522 25 208 11.3 19.3 0.00 0.00 0.00 58 1006.7
20260504210020 25 206 9.7 14.5 0.00 0.00 0.00 57 1006.9
20260504204519 25 226 9.7 19.3 0.00 0.00 0.00 55 1007.2
20260504203017 25 223 9.7 16.1 0.00 0.00 0.00 55 1007.2
20260504201515 24 236 9.7 16.1 0.00 0.00 0.00 56 1007.4
20260504200013 24 234 6.4 16.1 0.00 0.00 0.00 60 1007.2
20260504194517 23 228 8.0 16.1 0.00 0.00 0.00 61 1007.3
20260504193013 23 190 6.4 16.1 0.00 0.00 0.00 62 1007.3
20260504191510 23 231 12.9 20.9 0.00 0.00 0.00 62 1007.4
20260504190014 23 219 12.9 19.3 0.00 0.00 0.00 63 1007.3
20260504184526 23 227 11.3 16.1 0.00 0.00 0.00 60 1007.5
20260504183040 23 225 9.7 14.5 0.00 0.00 0.00 58 1007.4
20260504181540 23 326 0.0 8.0 0.00 0.00 0.00 55 1007.3
20260504180037 23 360 4.8 9.7 0.00 0.00 0.00 55 1007.4
20260504174533 23 304 4.8 12.9 0.00 0.00 0.00 55 1007.4
20260504173028 22 360 1.6 8.0 0.00 0.00 0.00 59 1007.5
20260504171526 21 26 8.0 14.5 0.00 0.00 0.00 60 1007.7